Track STARLINK-3605 now! 10-day predictions STARLINK-3605 is classified as:
1 51805U 22017AP 22187.85919086 -.00000963 00000-0 -42418-4 0 9990 2 51805 53.2129 232.8300 0001687 51.4136 308.7007 15.08828518 21670